Weather reports worldwide

Advertisment
La Roda de Andalucia, Spain (8399): temperature & dewpoint: 27.06.2020 22:00:00 - 03.07.2020 22:00:00 (CEST)La Roda de Andalucia, Spain (8399): wind speed & gusts: 27.06.2020 22:00:00 - 03.07.2020 22:00:00 (CEST)La Roda de Andalucia, Spain (8399): wind direction: 27.06.2020 22:00:00 - 03.07.2020 22:00:00 (CEST)La Roda de Andalucia, Spain (8399): reduced air pressure: 27.06.2020 22:00:00 - 03.07.2020 22:00:00 (CEST)La Roda de Andalucia, Spain (8399): visibility: 27.06.2020 22:00:00 - 03.07.2020 22:00:00 (CEST)La Roda de Andalucia, Spain (8399): sunshine duration: 27.06.2020 22:00:00 - 03.07.2020 22:00:00 (CEST)La Roda de Andalucia, Spain (8399): precipitation: 27.06.2020 22:00:00 - 03.07.2020 22:00:00 (CEST)
Date & Time tt [°C] td [°C] ff [km/h] ff [kn] fx [km/h] fx [kn] dd ppp [hPa] vv [km] sd [min] rr [mm]
03.07.2020 22:00:00 - - - - - - - - - - -
03.07.2020 21:00:00 32,6 0,6 12 6 - - W 1014,4 20 60 0,0
03.07.2020 20:00:00 34,4 2,1 11 6 24 13 WNW 1013,8 20 60 -
03.07.2020 19:00:00 35,6 1,9 11 6 - - W 1013,4 20 60 0,0
03.07.2020 18:00:00 35,5 2,9 12 7 28 15 WNW 1013,7 20 60 0,0
03.07.2020 17:00:00 35,1 2,5 9 5 29 16 WNW 1013,9 20 60 0,0
03.07.2020 16:00:00 35,3 1,5 12 7 26 14 W 1014,2 20 60 0,0
03.07.2020 15:00:00 33,8 1,5 11 6 20 11 W 1014,9 20 60 0,0
03.07.2020 14:00:00 32,9 0,9 6 3 18 10 WNW 1015,3 20 60 -
03.07.2020 13:00:00 31,7 0,9 9 5 19 10 NNW 1015,8 20 60 0,0
03.07.2020 12:00:00 29,5 6,8 6 3 17 9 N 1016,2 20 60 0,0
03.07.2020 11:00:00 27,3 8,3 4 2 9 5 ESE 1016,4 20 60 0,0
03.07.2020 10:00:00 24,3 9,4 4 2 12 7 NNE 1016,9 20 60 0,0
03.07.2020 09:00:00 22,4 9,9 6 3 12 7 WNW 1017,0 20 42 0,0
03.07.2020 08:00:00 19,7 9,6 6 3 14 8 S 1017,0 20 0 -
03.07.2020 07:00:00 19,4 9,6 9 5 16 8 W 1016,5 20 0 0,0
03.07.2020 06:00:00 19,3 9,4 8 4 14 8 WSW 1016,5 20 0 0,0
03.07.2020 05:00:00 19,2 9,0 6 3 11 6 SSW 1016,7 20 0 0,0
03.07.2020 04:00:00 21,1 9,9 7 4 14 7 WSW 1016,4 20 0 0,0
03.07.2020 03:00:00 21,7 9,6 6 4 21 12 WSW 1016,4 20 0 0,0
03.07.2020 02:00:00 23,3 9,3 11 6 23 12 W 1016,1 20 0 -
03.07.2020 01:00:00 24,3 8,3 10 6 24 13 W 1015,7 20 0 0,0
03.07.2020 00:00:00 25,7 7,3 9 5 23 12 W 1015,1 20 0 0,0
02.07.2020 23:00:00 26,8 7,3 11 6 20 11 WSW 1014,3 20 0 0,0
02.07.2020 22:00:00 29,1 6,4 11 6 30 16 W 1013,4 20 10 0,0
02.07.2020 21:00:00 32,2 6,4 15 8 31 17 W 1012,5 20 60 0,0
02.07.2020 20:00:00 33,8 3,6 18 10 - - W 1012,2 20 60 -
02.07.2020 19:00:00 34,6 1,1 19 10 30 16 WNW 1012,2 20 60 0,0
02.07.2020 18:00:00 35,6 2,9 18 10 31 17 W 1012,4 20 60 0,0
02.07.2020 17:00:00 35,7 1,9 18 10 35 19 W 1012,5 20 60 0,0
02.07.2020 16:00:00 35,0 5,5 15 8 30 16 W 1013,0 20 60 0,0
02.07.2020 15:00:00 33,3 6,5 11 6 29 15 NW 1013,6 20 60 0,0
02.07.2020 14:00:00 33,1 7,1 11 6 26 14 NNW 1014,1 20 60 -
02.07.2020 13:00:00 32,1 9,6 8 5 18 10 NE 1014,3 20 60 0,0
02.07.2020 12:00:00 30,3 9,8 6 3 14 8 NNW 1014,7 20 60 0,0
02.07.2020 11:00:00 28,2 10,9 4 2 9 5 NNW 1014,8 20 60 0,0
02.07.2020 10:00:00 25,0 10,9 6 3 10 5 N 1015,2 20 60 0,0
02.07.2020 09:00:00 22,1 10,3 3 2 9 5 NW 1015,3 20 42 0,0
02.07.2020 08:00:00 18,2 9,6 7 4 10 5 S 1015,5 20 0 -
02.07.2020 07:00:00 17,4 7,7 6 3 10 5 S 1015,5 20 0 0,0
02.07.2020 06:00:00 16,8 7,7 8 4 10 6 S 1015,1 20 0 0,0
02.07.2020 05:00:00 16,6 8,0 7 4 9 5 S 1015,0 20 0 0,0
02.07.2020 04:00:00 16,9 8,5 5 3 9 5 S 1014,7 20 0 0,0
02.07.2020 03:00:00 17,8 8,4 6 3 10 5 S 1014,8 20 0 0,0
02.07.2020 02:00:00 19,1 8,7 2 1 11 6 E 1014,5 20 0 -
02.07.2020 01:00:00 21,3 9,2 7 4 12 6 S 1014,2 20 0 0,0
02.07.2020 00:00:00 24,5 10,4 9 5 15 8 WSW 1013,4 20 0 0,0
01.07.2020 23:00:00 24,9 9,2 6 3 11 6 S 1013,1 20 0 0,0
01.07.2020 22:00:00 29,5 10,0 8 4 26 14 W 1011,7 20 6 0,0
01.07.2020 21:00:00 32,4 8,7 15 8 29 16 WNW 1011,1 20 60 0,0
01.07.2020 20:00:00 34,7 6,1 17 9 31 17 WNW 1010,5 20 60 -
01.07.2020 19:00:00 35,7 4,1 14 8 29 16 WNW 1010,5 20 60 0,0
01.07.2020 18:00:00 36,7 3,8 15 8 26 14 WNW 1010,5 15 60 0,0
01.07.2020 17:00:00 36,4 2,5 11 6 24 13 NW 1010,9 20 60 0,0
01.07.2020 16:00:00 35,9 3,2 10 6 24 13 NW 1011,1 20 60 0,0
01.07.2020 15:00:00 35,4 2,9 11 6 26 14 WNW 1011,7 20 60 0,0
01.07.2020 14:00:00 34,6 5,9 12 6 23 12 W 1012,1 20 60 -
01.07.2020 13:00:00 32,9 9,7 4 2 14 8 NW 1012,5 20 60 0,0
01.07.2020 12:00:00 30,4 9,8 4 2 14 8 NW 1012,9 20 60 0,0
01.07.2020 11:00:00 28,5 10,2 4 2 9 5 W 1013,3 20 60 0,0
01.07.2020 10:00:00 25,5 10,9 3 2 6 3 NE 1013,7 20 60 0,0
01.07.2020 09:00:00 21,6 13,3 3 1 5 3 N 1014,1 11 42 0,0
01.07.2020 08:00:00 16,8 12,1 3 1 9 5 SSE 1014,6 19 0 -
01.07.2020 07:00:00 15,7 11,1 6 3 9 5 S 1014,4 19 0 0,0
01.07.2020 06:00:00 16,2 11,1 5 3 8 5 S 1014,1 20 0 0,0
01.07.2020 05:00:00 17,5 10,9 3 1 7 4 WNW 1013,8 20 0 0,0
01.07.2020 04:00:00 20,3 12,0 3 2 15 8 W 1013,2 20 0 0,0
01.07.2020 03:00:00 21,2 12,1 9 5 16 8 WSW 1013,0 20 0 0,0
01.07.2020 02:00:00 21,7 12,5 7 4 10 5 SSW 1013,0 20 0 -
01.07.2020 01:00:00 23,4 12,1 5 3 16 8 SSW 1012,8 20 0 0,0
01.07.2020 00:00:00 25,1 12,6 9 5 18 10 W 1012,0 20 0 0,0
30.06.2020 23:00:00 26,8 13,2 12 6 29 16 W 1011,1 20 0 0,0
30.06.2020 22:00:00 28,6 15,2 15 8 31 17 W 1009,8 20 9 0,0
30.06.2020 21:00:00 31,6 14,2 18 10 - - W 1009,0 20 60 0,0
30.06.2020 20:00:00 35,2 12,8 19 10 34 18 W 1007,9 20 60 -
30.06.2020 19:00:00 37,3 6,4 8 5 21 12 S 1007,4 20 60 0,0
30.06.2020 18:00:00 37,8 5,8 9 5 29 16 S 1007,7 20 60 0,0
30.06.2020 17:00:00 38,2 5,0 9 5 25 13 S 1008,0 20 60 0,0
30.06.2020 16:00:00 38,0 4,8 11 6 26 14 SSW 1008,6 20 60 0,0
30.06.2020 15:00:00 36,6 4,8 15 8 34 18 S 1009,4 20 60 0,0
30.06.2020 14:00:00 36,3 3,4 15 8 34 18 S 1009,8 20 60 -
30.06.2020 13:00:00 34,7 5,1 12 7 30 16 S 1010,2 20 60 0,0
30.06.2020 12:00:00 33,4 5,8 9 5 19 10 SSE 1010,4 20 60 0,0
30.06.2020 11:00:00 30,8 5,9 9 5 22 12 SSE 1010,6 20 60 0,0
30.06.2020 10:00:00 27,3 6,7 8 4 - - SSE 1011,2 20 60 0,0
30.06.2020 09:00:00 22,1 7,4 4 2 8 4 S 1012,0 20 41 0,0
30.06.2020 08:00:00 17,9 7,0 6 3 11 6 S 1012,4 20 0 -
30.06.2020 07:00:00 17,2 5,8 7 4 10 5 S 1012,3 20 0 0,0
30.06.2020 06:00:00 18,4 5,6 6 3 9 5 S 1011,9 20 0 0,0
30.06.2020 05:00:00 21,5 5,8 4 2 13 7 ENE 1011,3 20 0 0,0
30.06.2020 04:00:00 22,1 5,1 7 4 19 11 S 1011,6 20 0 0,0
30.06.2020 03:00:00 22,2 5,1 9 5 24 13 S 1012,0 20 0 0,0
30.06.2020 02:00:00 23,4 6,2 16 9 29 16 SSW 1012,3 20 0 -
30.06.2020 01:00:00 23,9 5,8 11 6 26 14 SSW 1012,2 20 0 0,0
30.06.2020 00:00:00 25,0 4,6 13 7 29 15 S 1012,2 20 0 0,0
29.06.2020 23:00:00 26,9 2,7 14 7 24 13 S 1011,5 20 0 0,0
29.06.2020 22:00:00 29,8 -0,5 13 7 23 13 S 1010,7 20 9 0,0
29.06.2020 21:00:00 33,4 -1,2 14 7 27 15 S 1009,9 20 60 0,0
29.06.2020 20:00:00 35,6 -2,2 - - - - - 1009,4 20 60 -
29.06.2020 19:00:00 36,6 -3,0 17 9 33 18 S 1009,5 20 60 0,0
29.06.2020 18:00:00 37,9 -0,5 14 7 29 16 S 1009,7 20 60 0,0
29.06.2020 17:00:00 38,3 1,3 13 7 29 16 S 1010,0 20 60 0,0
29.06.2020 16:00:00 38,1 -0,3 12 6 30 16 S 1010,7 20 60 0,0
29.06.2020 15:00:00 37,2 3,0 12 6 26 14 S 1011,6 20 60 0,0
29.06.2020 14:00:00 36,6 3,8 14 8 28 15 SSW 1012,1 20 60 -
29.06.2020 13:00:00 35,9 7,0 8 4 19 10 SE 1012,5 20 60 0,0
29.06.2020 12:00:00 33,7 8,4 6 3 14 8 S 1013,2 20 60 0,0
29.06.2020 11:00:00 31,0 6,8 6 4 14 8 SSE 1013,7 20 60 0,0
29.06.2020 10:00:00 27,5 8,4 8 4 18 10 S 1014,3 20 60 0,0
29.06.2020 09:00:00 24,0 8,4 7 4 12 6 SSE 1014,7 20 41 0,0
29.06.2020 08:00:00 20,5 8,1 6 3 8 5 S 1014,9 20 0 -
29.06.2020 07:00:00 21,2 6,7 3 2 14 8 S 1015,0 20 0 0,0
29.06.2020 06:00:00 21,5 6,5 10 6 19 10 S 1014,5 20 0 0,0
29.06.2020 05:00:00 22,2 6,4 11 6 22 12 S 1014,5 20 0 0,0
29.06.2020 04:00:00 22,3 7,3 11 6 24 13 S 1014,8 20 0 0,0
29.06.2020 03:00:00 22,7 7,7 13 7 21 12 S 1015,3 20 0 0,0
29.06.2020 02:00:00 23,3 7,4 13 7 22 12 S 1015,6 20 0 -
29.06.2020 01:00:00 24,3 7,8 11 6 24 13 S 1015,1 20 0 0,0
29.06.2020 00:00:00 25,6 8,1 13 7 26 14 SSW 1014,7 20 0 0,0
28.06.2020 23:00:00 27,0 8,0 13 7 28 15 S 1013,9 20 0 0,0
28.06.2020 22:00:00 29,2 8,3 16 9 25 14 SSW 1012,9 20 9 0,0
28.06.2020 21:00:00 33,1 7,1 11 6 22 12 S 1011,9 20 60 0,0
28.06.2020 20:00:00 35,3 6,5 13 7 24 13 S 1011,3 20 60 -
28.06.2020 19:00:00 37,4 5,5 12 6 24 13 SSE 1010,9 20 60 0,0
28.06.2020 18:00:00 36,5 7,6 11 6 21 12 NNW 1011,5 20 60 0,0
28.06.2020 17:00:00 37,7 6,7 5 3 22 12 E 1011,6 20 60 0,0
28.06.2020 16:00:00 36,3 5,5 9 5 19 11 N 1012,4 20 60 0,0
28.06.2020 15:00:00 36,3 6,4 8 4 24 13 WSW 1012,8 20 60 0,0
28.06.2020 14:00:00 35,5 6,7 8 4 17 9 W 1013,5 20 60 -
28.06.2020 13:00:00 33,9 9,2 4 2 14 8 SSW 1014,0 20 60 0,0
28.06.2020 12:00:00 31,2 11,0 7 4 14 8 NNW 1014,6 20 60 0,0
28.06.2020 11:00:00 29,4 11,0 4 2 10 5 ENE 1014,9 20 60 0,0
28.06.2020 10:00:00 26,0 12,4 2 1 6 3 ESE 1015,5 20 60 0,0
28.06.2020 09:00:00 21,4 12,2 3 1 8 4 S 1016,1 20 40 0,0
28.06.2020 08:00:00 17,6 11,7 2 1 9 5 WSW 1016,4 20 0 -
28.06.2020 07:00:00 16,3 10,6 5 3 9 5 SSW 1016,5 20 0 0,0
28.06.2020 06:00:00 16,8 10,4 5 3 9 5 S 1016,3 20 0 0,0
28.06.2020 05:00:00 17,7 10,5 3 1 8 4 S 1016,2 20 0 0,0
28.06.2020 04:00:00 19,3 11,1 2 1 10 6 ESE 1016,1 20 0 0,0
28.06.2020 03:00:00 20,4 11,3 6 3 12 7 S 1015,9 20 0 0,0
28.06.2020 02:00:00 21,6 11,9 9 5 13 7 SW 1015,7 20 0 -
28.06.2020 01:00:00 23,5 12,2 4 2 18 10 WNW 1015,6 20 0 0,0
28.06.2020 00:00:00 24,6 12,5 11 6 23 12 WSW 1015,1 20 0 0,0
27.06.2020 23:00:00 25,8 8,8 10 5 16 9 WSW 1014,5 20 0 0,0
27.06.2020 22:00:00 28,6 8,3 8 5 21 11 W 1013,3 20 9 0,0

tt = temperature
td = dewpoint
ff = wind speed
fx = gusts
dd = wind direction
ppp = reduced air pressure
vv = visibility
sd = sunshine duration
rr = precipitation

Next stations